📊 Raw Sensor Data
Showing records 43576 to 43600 of 85,020 total
| ID | Distance (ft) | Battery V | Battery A | Int Temp (°F) | Int Humid (%) | Ext Temp (°F) | Solar V | RSSI | SNR | Time Stamp |
|---|---|---|---|---|---|---|---|---|---|---|
| 41457 | 15.2 | 3.88 | -5 | 63 | 52 | 62 | 0.00 | -70 | 8 | 05/23/2025 08:45 PM |
| 41456 | 15.2 | 3.88 | -5 | 65 | 53 | 63 | 1.10 | -67 | 7 | 05/23/2025 08:30 PM |
| 41455 | 15.3 | 3.87 | -10 | 68 | 54 | 65 | 2.20 | -69 | 8 | 05/23/2025 08:15 PM |
| 41454 | 15.3 | 3.96 | 0 | 72 | 54 | 68 | 4.50 | -70 | 8 | 05/23/2025 08:00 PM |
| 41453 | 15.4 | 3.97 | 0 | 76 | 53 | 71 | 4.50 | -69 | 8 | 05/23/2025 07:45 PM |
| 41452 | 15.4 | 3.91 | 8 | 80 | 52 | 73 | 4.60 | -69 | 7 | 05/23/2025 07:30 PM |
| 41451 | 15.8 | 3.99 | 0 | 83 | 51 | 74 | 4.50 | -69 | 8 | 05/23/2025 07:15 PM |
| 41450 | 15.8 | 3.94 | 12 | 85 | 50 | 78 | 4.50 | -69 | 8 | 05/23/2025 07:00 PM |
| 41449 | 15.8 | 3.94 | 0 | 86 | 50 | 79 | 5.10 | -68 | 7 | 05/23/2025 06:45 PM |
| 41448 | 15.8 | 3.94 | 0 | 88 | 49 | 82 | 5.10 | -68 | 6 | 05/23/2025 06:30 PM |
| 41447 | 15.8 | 3.94 | 0 | 89 | 49 | 81 | 5.10 | -68 | 7 | 05/23/2025 06:15 PM |
| 41446 | 15.8 | 3.94 | 0 | 90 | 48 | 82 | 5.10 | -69 | 7 | 05/23/2025 06:00 PM |
| 41445 | 15.9 | 3.94 | 0 | 91 | 47 | 82 | 5.10 | -68 | 8 | 05/23/2025 05:45 PM |
| 41444 | 15.9 | 3.94 | 0 | 91 | 47 | 82 | 5.10 | -68 | 7 | 05/23/2025 05:30 PM |
| 41443 | 15.8 | 4.07 | 0 | 93 | 46 | 82 | 5.10 | -67 | 7 | 05/23/2025 05:00 PM |
| 41442 | 15.8 | 4.07 | 0 | 93 | 45 | 83 | 5.10 | -69 | 8 | 05/23/2025 04:45 PM |
| 41441 | 15.8 | 3.94 | 0 | 93 | 44 | 85 | 5.10 | -68 | 8 | 05/23/2025 04:30 PM |
| 41440 | 15.8 | 4.12 | 0 | 93 | 44 | 82 | 5.10 | -68 | 8 | 05/23/2025 04:15 PM |
| 41439 | 15.8 | 4.07 | 0 | 93 | 43 | 81 | 5.10 | -68 | 8 | 05/23/2025 04:00 PM |
| 41438 | 15.8 | 3.94 | 0 | 92 | 43 | 85 | 5.10 | -68 | 8 | 05/23/2025 03:45 PM |
| 41437 | 15.8 | 3.94 | 0 | 91 | 42 | 78 | 5.10 | -68 | 8 | 05/23/2025 03:30 PM |
| 41436 | 15.8 | 4.02 | 0 | 91 | 42 | 77 | 5.10 | -67 | 7 | 05/23/2025 03:15 PM |
| 41435 | 15.8 | 3.94 | 0 | 90 | 41 | 78 | 5.10 | -69 | 8 | 05/23/2025 03:00 PM |
| 41434 | 15.8 | 4.07 | 0 | 90 | 40 | 83 | 5.10 | -68 | 7 | 05/23/2025 02:45 PM |
| 41433 | 15.8 | 4.12 | 0 | 89 | 40 | 84 | 5.10 | -69 | 7 | 05/23/2025 02:30 PM |